| time (UTC) | temp C | wind direction | speed KPH | gust KPH | rain 1hr cm | rain 24hr cm | rain mn cm | humidity % | barometer mb |
| 20260509033959 | 13 | 32 | 0.0 | 3.2 | 0.00 | 0.00 | 0.00 | 83 | 1010.8 |
| 20260509033459 | 13 | 23 | 1.6 | 4.8 | 0.00 | 0.00 | 0.00 | 82 | 1010.9 |
| 20260509032959 | 13 | 12 | 1.6 | 4.8 | 0.00 | 0.00 | 0.00 | 82 | 1011.0 |
| 20260509032459 | 13 | 2 | 1.6 | 8.0 | 0.00 | 0.00 | 0.00 | 82 | 1011.1 |
| 20260509031959 | 13 | 354 | 1.6 | 8.0 | 0.00 | 0.00 | 0.00 | 82 | 1011.1 |
| 20260509031459 | 13 | 360 | 1.6 | 9.7 | 0.00 | 0.00 | 0.00 | 81 | 1011.2 |
| 20260509030959 | 13 | 9 | 1.6 | 9.7 | 0.00 | 0.00 | 0.00 | 81 | 1011.2 |
| 20260509030459 | 13 | 3 | 1.6 | 4.8 | 0.00 | 0.00 | 0.00 | 81 | 1011.2 |
| 20260509025959 | 14 | 346 | 1.6 | 4.8 | 0.00 | 0.00 | 0.00 | 81 | 1011.2 |
| 20260509025459 | 14 | 356 | 3.2 | 14.5 | 0.00 | 0.00 | 0.00 | 80 | 1011.2 |
| 20260509024959 | 14 | 4 | 4.8 | 14.5 | 0.00 | 0.00 | 0.00 | 79 | 1011.3 |
| 20260509024459 | 14 | 5 | 3.2 | 11.3 | 0.00 | 0.00 | 0.00 | 79 | 1011.3 |
| 20260509023959 | 14 | 5 | 3.2 | 14.5 | 0.00 | 0.00 | 0.00 | 79 | 1011.4 |
| 20260509023459 | 14 | 359 | 3.2 | 14.5 | 0.00 | 0.00 | 0.00 | 78 | 1011.4 |
| 20260509022958 | 14 | 333 | 3.2 | 12.9 | 0.00 | 0.00 | 0.00 | 78 | 1011.4 |
| 20260509022459 | 15 | 324 | 3.2 | 9.7 | 0.00 | 0.00 | 0.00 | 77 | 1011.3 |
| 20260509021959 | 15 | 331 | 1.6 | 9.7 | 0.00 | 0.00 | 0.00 | 76 | 1011.4 |
| 20260509021459 | 15 | 322 | 1.6 | 4.8 | 0.00 | 0.00 | 0.00 | 75 | 1011.2 |
| 20260509020959 | 15 | 323 | 0.0 | 4.8 | 0.00 | 0.00 | 0.00 | 74 | 1011.0 |
| 20260509020520 | 15 | 308 | 0.0 | 1.6 | 0.00 | 0.00 | 0.00 | 73 | 1010.9 |
| 20260509015959 | 15 | 308 | 0.0 | 1.6 | 0.00 | 0.00 | 0.00 | 73 | 1010.7 |
| 20260509015459 | 15 | 309 | 0.0 | 1.6 | 0.00 | 0.00 | 0.00 | 74 | 1010.6 |
| 20260509014959 | 16 | 309 | 0.0 | 1.6 | 0.00 | 0.00 | 0.00 | 71 | 1010.6 |
| 20260509014459 | 16 | 309 | 0.0 | 1.6 | 0.00 | 0.00 | 0.00 | 69 | 1010.5 |
| 20260509013959 | 16 | 309 | 0.0 | 1.6 | 0.00 | 0.00 | 0.00 | 68 | 1010.5 |
| 20260509013520 | 16 | 309 | 0.0 | 3.2 | 0.00 | 0.00 | 0.00 | 68 | 1010.5 |
| 20260509012959 | 16 | 307 | 1.6 | 3.2 | 0.00 | 0.00 | 0.00 | 66 | 1010.5 |
| 20260509012459 | 16 | 246 | 1.6 | 6.4 | 0.00 | 0.00 | 0.00 | 63 | 1010.6 |
| 20260509011959 | 16 | 205 | 3.2 | 17.7 | 0.00 | 0.00 | 0.00 | 60 | 1010.6 |
| 20260509011459 | 16 | 205 | 3.2 | 17.7 | 0.00 | 0.00 | 0.00 | 62 | 1010.7 |
| 20260509010959 | 16 | 239 | 1.6 | 12.9 | 0.00 | 0.00 | 0.00 | 62 | 1010.7 |
| 20260509010459 | 16 | 289 | 0.0 | 3.2 | 0.00 | 0.00 | 0.00 | 66 | 1010.8 |
| 20260509005959 | 16 | 289 | 0.0 | 3.2 | 0.00 | 0.00 | 0.00 | 65 | 1010.6 |
| 20260509005500 | 17 | 289 | 0.0 | 1.6 | 0.00 | 0.00 | 0.00 | 62 | 1010.5 |
| 20260509004959 | 17 | 289 | 0.0 | 1.6 | 0.00 | 0.00 | 0.00 | 61 | 1010.5 |
| 20260509004459 | 17 | 289 | 0.0 | 1.6 | 0.00 | 0.00 | 0.00 | 60 | 1010.4 |
| 20260509003959 | 17 | 289 | 0.0 | 1.6 | 0.00 | 0.00 | 0.00 | 58 | 1010.3 |
| 20260509003500 | 17 | 289 | 0.0 | 1.6 | 0.00 | 0.00 | 0.00 | 56 | 1010.2 |
| 20260509002959 | 17 | 289 | 0.0 | 1.6 | 0.00 | 0.00 | 0.00 | 56 | 1010.1 |
| 20260509002459 | 17 | 289 | 0.0 | 1.6 | 0.00 | 0.00 | 0.00 | 56 | 1010.1 |
| 20260509001959 | 17 | 289 | 0.0 | 1.6 | 0.00 | 0.00 | 0.00 | 55 | 1010.1 |
| 20260509001459 | 17 | 289 | 0.0 | 1.6 | 0.00 | 0.00 | 0.00 | 54 | 1010.1 |
| 20260509000959 | 17 | 289 | 0.0 | 1.6 | 0.00 | 0.00 | 0.00 | 54 | 1010.2 |
| 20260509000459 | 18 | 289 | 0.0 | 1.6 | 0.00 | 0.00 | 0.00 | 53 | 1010.4 |
| 20260509000020 | 18 | 277 | 0.0 | 3.2 | 0.00 | 0.00 | 0.00 | 54 | 1010.5 |
| 20260508235459 | 18 | 265 | 0.0 | 3.2 | 0.00 | 0.00 | 0.00 | 57 | 1010.3 |
| 20260508235000 | 18 | 236 | 0.0 | 1.6 | 0.00 | 0.00 | 0.00 | 54 | 1010.2 |
| 20260508234459 | 18 | 236 | 0.0 | 3.2 | 0.00 | 0.00 | 0.00 | 55 | 1010.2 |
| 20260508233959 | 18 | 236 | 0.0 | 3.2 | 0.00 | 0.00 | 0.00 | 53 | 1010.1 |
| 20260508233459 | 18 | 236 | 0.0 | 3.2 | 0.00 | 0.00 | 0.00 | 53 | 1010.1 |
| 20260508233020 | 18 | 236 | 0.0 | 3.2 | 0.00 | 0.00 | 0.00 | 52 | 1010.0 |
| 20260508232459 | 18 | 236 | 0.0 | 3.2 | 0.00 | 0.00 | 0.00 | 55 | 1010.1 |
| 20260508232020 | 18 | 236 | 0.0 | 4.8 | 0.00 | 0.00 | 0.00 | 51 | 1010.1 |
| 20260508231459 | 18 | 236 | 0.0 | 4.8 | 0.00 | 0.00 | 0.00 | 51 | 1010.3 |
| 20260508230959 | 18 | 235 | 1.6 | 4.8 | 0.00 | 0.00 | 0.00 | 50 | 1010.3 |
| 20260508230520 | 18 | 233 | 0.0 | 4.8 | 0.00 | 0.00 | 0.00 | 51 | 1010.2 |
| 20260508230020 | 18 | 231 | 0.0 | 3.2 | 0.00 | 0.00 | 0.00 | 51 | 1010.1 |
| 20260508225459 | 19 | 231 | 0.0 | 3.2 | 0.00 | 0.00 | 0.00 | 49 | 1010.1 |
| 20260508224959 | 19 | 231 | 0.0 | 3.2 | 0.00 | 0.00 | 0.00 | 52 | 1010.1 |
| 20260508224459 | 19 | 241 | 0.0 | 3.2 | 0.00 | 0.00 | 0.00 | 49 | 1010.1 |
| 20260508223959 | 19 | 241 | 1.6 | 11.3 | 0.00 | 0.00 | 0.00 | 47 | 1009.9 |
| 20260508223459 | 20 | 238 | 3.2 | 11.3 | 0.00 | 0.00 | 0.00 | 46 | 1010.0 |
| 20260508222959 | 20 | 221 | 1.6 | 11.3 | 0.00 | 0.00 | 0.00 | 46 | 1010.0 |
| 20260508222459 | 20 | 210 | 1.6 | 12.9 | 0.00 | 0.00 | 0.00 | 47 | 1010.0 |
| 20260508222020 | 20 | 218 | 1.6 | 12.9 | 0.00 | 0.00 | 0.00 | 45 | 1009.9 |
| 20260508221459 | 20 | 187 | 1.6 | 9.7 | 0.00 | 0.00 | 0.00 | 46 | 1010.0 |
| 20260508221000 | 20 | 199 | 1.6 | 9.7 | 0.00 | 0.00 | 0.00 | 45 | 1010.0 |
| 20260508220459 | 20 | 249 | 1.6 | 8.0 | 0.00 | 0.00 | 0.00 | 45 | 1009.9 |
| 20260508215959 | 20 | 193 | 3.2 | 11.3 | 0.00 | 0.00 | 0.00 | 45 | 1009.9 |
| 20260508215459 | 20 | 152 | 3.2 | 12.9 | 0.00 | 0.00 | 0.00 | 45 | 1009.9 |
| 20260508214959 | 20 | 186 | 3.2 | 14.5 | 0.00 | 0.00 | 0.00 | 46 | 1009.9 |
| 20260508214500 | 20 | 217 | 4.8 | 14.5 | 0.00 | 0.00 | 0.00 | 43 | 1009.8 |
| 20260508213959 | 20 | 196 | 3.2 | 12.9 | 0.00 | 0.00 | 0.00 | 44 | 1009.8 |
| 20260508213500 | 20 | 196 | 3.2 | 12.9 | 0.00 | 0.00 | 0.00 | 43 | 1010.0 |
| 20260508212959 | 20 | 222 | 3.2 | 8.0 | 0.00 | 0.00 | 0.00 | 43 | 1010.1 |
| 20260508212459 | 20 | 207 | 3.2 | 12.9 | 0.00 | 0.00 | 0.00 | 45 | 1010.1 |
| 20260508211959 | 20 | 194 | 3.2 | 12.9 | 0.00 | 0.00 | 0.00 | 44 | 1010.1 |
| 20260508211459 | 20 | 191 | 3.2 | 12.9 | 0.00 | 0.00 | 0.00 | 43 | 1010.2 |
| 20260508210959 | 20 | 187 | 4.8 | 12.9 | 0.00 | 0.00 | 0.00 | 45 | 1010.2 |
| 20260508210521 | 20 | 185 | 3.2 | 11.3 | 0.00 | 0.00 | 0.00 | 43 | 1010.2 |
| 20260508205959 | 20 | 166 | 3.2 | 12.9 | 0.00 | 0.00 | 0.00 | 43 | 1010.4 |
| 20260508205459 | 20 | 152 | 4.8 | 12.9 | 0.00 | 0.00 | 0.00 | 42 | 1010.6 |
| 20260508204959 | 20 | 171 | 1.6 | 11.3 | 0.00 | 0.00 | 0.00 | 44 | 1010.7 |
| 20260508204459 | 20 | 200 | 1.6 | 6.4 | 0.00 | 0.00 | 0.00 | 46 | 1010.8 |
| 20260508204021 | 20 | 166 | 3.2 | 12.9 | 0.00 | 0.00 | 0.00 | 44 | 1010.9 |
| 20260508203520 | 20 | 175 | 3.2 | 12.9 | 0.00 | 0.00 | 0.00 | 43 | 1010.8 |
| 20260508202959 | 20 | 211 | 1.6 | 11.3 | 0.00 | 0.00 | 0.00 | 43 | 1010.9 |
| 20260508202500 | 20 | 236 | 3.2 | 6.4 | 0.00 | 0.00 | 0.00 | 43 | 1011.1 |
| 20260508201959 | 20 | 227 | 3.2 | 12.9 | 0.00 | 0.00 | 0.00 | 42 | 1011.2 |
| 20260508201520 | 20 | 173 | 1.6 | 12.9 | 0.00 | 0.00 | 0.00 | 42 | 1011.2 |
| 20260508201020 | 20 | 153 | 3.2 | 8.0 | 0.00 | 0.00 | 0.00 | 42 | 1011.3 |
| 20260508200459 | 20 | 211 | 3.2 | 19.3 | 0.00 | 0.00 | 0.00 | 44 | 1011.4 |
| 20260508195959 | 20 | 219 | 3.2 | 12.9 | 0.00 | 0.00 | 0.00 | 44 | 1011.4 |
| 20260508195500 | 20 | 202 | 3.2 | 11.3 | 0.00 | 0.00 | 0.00 | 44 | 1011.3 |
| 20260508194959 | 20 | 223 | 3.2 | 9.7 | 0.00 | 0.00 | 0.00 | 44 | 1011.4 |
| 20260508194520 | 20 | 244 | 3.2 | 9.7 | 0.00 | 0.00 | 0.00 | 43 | 1011.4 |
| 20260508193959 | 20 | 240 | 3.2 | 8.0 | 0.00 | 0.00 | 0.00 | 42 | 1011.5 |
| 20260508193500 | 20 | 224 | 4.8 | 12.9 | 0.00 | 0.00 | 0.00 | 41 | 1011.5 |
| 20260508192959 | 20 | 217 | 4.8 | 16.1 | 0.00 | 0.00 | 0.00 | 41 | 1011.6 |
| 20260508192520 | 20 | 230 | 4.8 | 16.1 | 0.00 | 0.00 | 0.00 | 42 | 1011.6 |
| 20260508192020 | 20 | 223 | 3.2 | 16.1 | 0.00 | 0.00 | 0.00 | 42 | 1011.5 |
| 20260508191500 | 20 | 222 | 3.2 | 12.9 | 0.00 | 0.00 | 0.00 | 41 | 1011.6 |
| 20260508190959 | 20 | 174 | 3.2 | 16.1 | 0.00 | 0.00 | 0.00 | 43 | 1011.8 |
| 20260508190459 | 21 | 158 | 3.2 | 16.1 | 0.00 | 0.00 | 0.00 | 41 | 1011.7 |
| 20260508190000 | 21 | 209 | 3.2 | 12.9 | 0.00 | 0.00 | 0.00 | 43 | 1011.9 |
| 20260508185500 | 21 | 243 | 4.8 | 14.5 | 0.00 | 0.00 | 0.00 | 40 | 1011.9 |
| 20260508185021 | 21 | 227 | 4.8 | 14.5 | 0.00 | 0.00 | 0.00 | 41 | 1012.1 |
| 20260508184520 | 21 | 201 | 4.8 | 11.3 | 0.00 | 0.00 | 0.00 | 42 | 1012.1 |
| 20260508184000 | 21 | 204 | 4.8 | 12.9 | 0.00 | 0.00 | 0.00 | 40 | 1012.1 |
| 20260508183500 | 21 | 207 | 4.8 | 17.7 | 0.00 | 0.00 | 0.00 | 40 | 1012.2 |
| 20260508182959 | 21 | 202 | 4.8 | 17.7 | 0.00 | 0.00 | 0.00 | 41 | 1012.3 |
| 20260508182459 | 20 | 230 | 4.8 | 19.3 | 0.00 | 0.00 | 0.00 | 43 | 1012.3 |
| 20260508181959 | 20 | 246 | 6.4 | 19.3 | 0.00 | 0.00 | 0.00 | 39 | 1012.7 |
| 20260508181500 | 20 | 236 | 6.4 | 19.3 | 0.00 | 0.00 | 0.00 | 42 | 1012.8 |
| 20260508180959 | 20 | 210 | 4.8 | 12.9 | 0.00 | 0.00 | 0.00 | 44 | 1012.8 |
| 20260508180459 | 20 | 218 | 4.8 | 11.3 | 0.00 | 0.00 | 0.00 | 44 | 1012.8 |
| 20260508180000 | 20 | 232 | 4.8 | 16.1 | 0.00 | 0.00 | 0.00 | 42 | 1012.9 |
| 20260508175459 | 21 | 217 | 4.8 | 16.1 | 0.00 | 0.00 | 0.00 | 44 | 1012.9 |
| 20260508175020 | 21 | 213 | 4.8 | 16.1 | 0.00 | 0.00 | 0.00 | 45 | 1013.1 |
| 20260508174459 | 20 | 178 | 4.8 | 16.1 | 0.00 | 0.00 | 0.00 | 46 | 1013.1 |
| 20260508174000 | 20 | 156 | 3.2 | 14.5 | 0.00 | 0.00 | 0.00 | 43 | 1013.2 |
| 20260508173459 | 20 | 190 | 3.2 | 12.9 | 0.00 | 0.00 | 0.00 | 46 | 1013.3 |
| 20260508173021 | 20 | 214 | 4.8 | 14.5 | 0.00 | 0.00 | 0.00 | 46 | 1013.3 |
| 20260508172500 | 20 | 246 | 6.4 | 14.5 | 0.00 | 0.00 | 0.00 | 44 | 1013.5 |
| 20260508172000 | 20 | 241 | 4.8 | 14.5 | 0.00 | 0.00 | 0.00 | 45 | 1013.5 |
| 20260508171459 | 20 | 221 | 6.4 | 17.7 | 0.00 | 0.00 | 0.00 | 44 | 1013.7 |
| 20260508170959 | 20 | 193 | 6.4 | 17.7 | 0.00 | 0.00 | 0.00 | 45 | 1013.8 |
| 20260508170459 | 20 | 183 | 4.8 | 16.1 | 0.00 | 0.00 | 0.00 | 47 | 1013.8 |
| 20260508170000 | 20 | 195 | 4.8 | 14.5 | 0.00 | 0.00 | 0.00 | 45 | 1013.9 |
| 20260508165459 | 20 | 197 | 4.8 | 11.3 | 0.00 | 0.00 | 0.00 | 45 | 1014.0 |
| 20260508164959 | 20 | 173 | 6.4 | 20.9 | 0.00 | 0.00 | 0.00 | 44 | 1014.2 |
| 20260508164500 | 20 | 169 | 6.4 | 20.9 | 0.00 | 0.00 | 0.00 | 45 | 1014.3 |
| 20260508164020 | 20 | 188 | 4.8 | 19.3 | 0.00 | 0.00 | 0.00 | 46 | 1014.4 |
| 20260508163459 | 20 | 174 | 6.4 | 22.5 | 0.00 | 0.00 | 0.00 | 48 | 1014.4 |
| 20260508162959 | 19 | 160 | 6.4 | 22.5 | 0.00 | 0.00 | 0.00 | 48 | 1014.5 |
| 20260508162459 | 20 | 162 | 6.4 | 19.3 | 0.00 | 0.00 | 0.00 | 47 | 1014.5 |
| 20260508161959 | 19 | 175 | 6.4 | 17.7 | 0.00 | 0.00 | 0.00 | 46 | 1014.7 |
| 20260508161459 | 19 | 195 | 4.8 | 17.7 | 0.00 | 0.00 | 0.00 | 47 | 1014.7 |
| 20260508161021 | 19 | 218 | 4.8 | 17.7 | 0.00 | 0.00 | 0.00 | 48 | 1014.7 |
| 20260508160459 | 18 | 255 | 6.4 | 17.7 | 0.00 | 0.00 | 0.00 | 47 | 1014.8 |
| 20260508160000 | 18 | 240 | 6.4 | 20.9 | 0.00 | 0.00 | 0.00 | 47 | 1014.8 |
| 20260508155500 | 18 | 192 | 4.8 | 20.9 | 0.00 | 0.00 | 0.00 | 47 | 1014.9 |
| 20260508154959 | 18 | 178 | 4.8 | 17.7 | 0.00 | 0.00 | 0.00 | 51 | 1015.0 |
| 20260508154500 | 18 | 215 | 6.4 | 25.7 | 0.00 | 0.00 | 0.00 | 51 | 1015.0 |
| 20260508154000 | 18 | 202 | 6.4 | 25.7 | 0.00 | 0.00 | 0.00 | 52 | 1015.1 |
| 20260508153520 | 18 | 182 | 4.8 | 19.3 | 0.00 | 0.00 | 0.00 | 50 | 1015.2 |
| 20260508153021 | 17 | 209 | 6.4 | 16.1 | 0.00 | 0.00 | 0.00 | 50 | 1015.3 |
| 20260508152459 | 17 | 190 | 6.4 | 19.3 | 0.00 | 0.00 | 0.00 | 49 | 1015.3 |
| 20260508152000 | 17 | 171 | 6.4 | 17.7 | 0.00 | 0.00 | 0.00 | 51 | 1015.4 |
| 20260508151459 | 17 | 204 | 4.8 | 17.7 | 0.00 | 0.00 | 0.00 | 51 | 1015.4 |
| 20260508151000 | 17 | 224 | 4.8 | 25.7 | 0.00 | 0.00 | 0.00 | 52 | 1015.5 |
| 20260508150500 | 17 | 233 | 4.8 | 25.7 | 0.00 | 0.00 | 0.00 | 51 | 1015.5 |
| 20260508145959 | 17 | 222 | 3.2 | 14.5 | 0.00 | 0.00 | 0.00 | 52 | 1015.5 |
| 20260508145500 | 16 | 230 | 4.8 | 17.7 | 0.00 | 0.00 | 0.00 | 55 | 1015.4 |
| 20260508144959 | 16 | 228 | 6.4 | 17.7 | 0.00 | 0.00 | 0.00 | 51 | 1015.5 |
| 20260508144459 | 16 | 205 | 4.8 | 14.5 | 0.00 | 0.00 | 0.00 | 51 | 1015.6 |
| 20260508144000 | 16 | 213 | 4.8 | 14.5 | 0.00 | 0.00 | 0.00 | 54 | 1015.6 |
| 20260508143520 | 16 | 220 | 4.8 | 20.9 | 0.00 | 0.00 | 0.00 | 52 | 1015.6 |
| 20260508143000 | 15 | 226 | 4.8 | 20.9 | 0.00 | 0.00 | 0.00 | 54 | 1015.6 |
| 20260508142459 | 15 | 225 | 4.8 | 17.7 | 0.00 | 0.00 | 0.00 | 56 | 1015.7 |
| 20260508142000 | 15 | 207 | 4.8 | 17.7 | 0.00 | 0.00 | 0.00 | 53 | 1015.8 |
| 20260508141459 | 15 | 218 | 4.8 | 17.7 | 0.00 | 0.00 | 0.00 | 54 | 1015.9 |
| 20260508141000 | 15 | 219 | 6.4 | 16.1 | 0.00 | 0.00 | 0.00 | 54 | 1015.9 |
| 20260508140459 | 15 | 229 | 4.8 | 16.1 | 0.00 | 0.00 | 0.00 | 54 | 1015.9 |
| 20260508135959 | 14 | 233 | 4.8 | 16.1 | 0.00 | 0.00 | 0.00 | 55 | 1015.9 |
| 20260508135500 | 14 | 228 | 4.8 | 16.1 | 0.00 | 0.00 | 0.00 | 56 | 1016.1 |
| 20260508134959 | 14 | 238 | 4.8 | 16.1 | 0.00 | 0.00 | 0.00 | 56 | 1016.0 |
| 20260508134459 | 13 | 222 | 4.8 | 20.9 | 0.00 | 0.00 | 0.00 | 56 | 1016.0 |
| 20260508134020 | 13 | 207 | 4.8 | 20.9 | 0.00 | 0.00 | 0.00 | 54 | 1016.0 |
| 20260508133500 | 13 | 216 | 4.8 | 22.5 | 0.00 | 0.00 | 0.00 | 54 | 1016.0 |
| 20260508133000 | 13 | 224 | 3.2 | 22.5 | 0.00 | 0.00 | 0.00 | 54 | 1016.0 |
| 20260508132459 | 13 | 214 | 3.2 | 11.3 | 0.00 | 0.00 | 0.00 | 57 | 1015.9 |
| 20260508132000 | 13 | 212 | 4.8 | 14.5 | 0.00 | 0.00 | 0.00 | 56 | 1016.0 |
| 20260508131520 | 13 | 201 | 4.8 | 14.5 | 0.00 | 0.00 | 0.00 | 56 | 1016.0 |
| 20260508131000 | 13 | 206 | 4.8 | 17.7 | 0.00 | 0.00 | 0.00 | 57 | 1016.0 |
| 20260508130459 | 13 | 224 | 4.8 | 17.7 | 0.00 | 0.00 | 0.00 | 57 | 1015.9 |
| 20260508130000 | 12 | 223 | 3.2 | 11.3 | 0.00 | 0.00 | 0.00 | 58 | 1016.0 |
| 20260508125459 | 12 | 217 | 4.8 | 11.3 | 0.00 | 0.00 | 0.00 | 58 | 1016.1 |
| 20260508124959 | 12 | 188 | 3.2 | 17.7 | 0.00 | 0.00 | 0.00 | 58 | 1015.9 |
| 20260508124500 | 12 | 171 | 3.2 | 17.7 | 0.00 | 0.00 | 0.00 | 59 | 1015.9 |
| 20260508124000 | 12 | 185 | 3.2 | 11.3 | 0.00 | 0.00 | 0.00 | 59 | 1015.9 |
| 20260508123500 | 11 | 198 | 3.2 | 11.3 | 0.00 | 0.00 | 0.00 | 59 | 1015.9 |
| 20260508123000 | 11 | 200 | 3.2 | 17.7 | 0.00 | 0.00 | 0.00 | 62 | 1015.8 |
| 20260508122459 | 11 | 198 | 3.2 | 17.7 | 0.00 | 0.00 | 0.00 | 60 | 1015.7 |
| 20260508122000 | 11 | 219 | 1.6 | 6.4 | 0.00 | 0.00 | 0.00 | 63 | 1015.8 |
| 20260508121459 | 11 | 211 | 1.6 | 6.4 | 0.00 | 0.00 | 0.00 | 62 | 1015.8 |
| 20260508121000 | 10 | 219 | 1.6 | 9.7 | 0.00 | 0.00 | 0.00 | 63 | 1015.8 |
| 20260508120459 | 10 | 229 | 3.2 | 9.7 | 0.00 | 0.00 | 0.00 | 64 | 1015.8 |
| 20260508120000 | 10 | 220 | 1.6 | 8.0 | 0.00 | 0.00 | 0.00 | 65 | 1015.8 |
| 20260508115459 | 10 | 226 | 1.6 | 3.2 | 0.00 | 0.00 | 0.00 | 66 | 1015.7 |
| 20260508115000 | 9 | 233 | 1.6 | 4.8 | 0.00 | 0.00 | 0.00 | 67 | 1015.7 |
| 20260508114459 | 9 | 220 | 0.0 | 4.8 | 0.00 | 0.00 | 0.00 | 66 | 1015.7 |
| 20260508114000 | 9 | 154 | 0.0 | 1.6 | 0.00 | 0.00 | 0.00 | 66 | 1015.7 |
| 20260508113500 | 9 | 155 | 0.0 | 3.2 | 0.00 | 0.00 | 0.00 | 66 | 1015.6 |
| 20260508113020 | 10 | 237 | 1.6 | 6.4 | 0.00 | 0.00 | 0.00 | 65 | 1015.6 |
| 20260508112500 | 10 | 266 | 1.6 | 6.4 | 0.00 | 0.00 | 0.00 | 64 | 1015.5 |
| 20260508112000 | 10 | 262 | 1.6 | 4.8 | 0.00 | 0.00 | 0.00 | 64 | 1015.4 |
| 20260508111459 | 10 | 229 | 1.6 | 4.8 | 0.00 | 0.00 | 0.00 | 63 | 1015.5 |
| 20260508111000 | 10 | 226 | 1.6 | 6.4 | 0.00 | 0.00 | 0.00 | 64 | 1015.4 |
| 20260508110500 | 10 | 234 | 1.6 | 6.4 | 0.00 | 0.00 | 0.00 | 64 | 1015.3 |
| 20260508105959 | 10 | 242 | 1.6 | 9.7 | 0.00 | 0.00 | 0.00 | 65 | 1015.3 |
| 20260508105500 | 10 | 244 | 1.6 | 9.7 | 0.00 | 0.00 | 0.00 | 64 | 1015.2 |
| 20260508105021 | 10 | 256 | 1.6 | 8.0 | 0.00 | 0.00 | 0.00 | 65 | 1015.2 |
| 20260508104500 | 9 | 253 | 0.0 | 8.0 | 0.00 | 0.00 | 0.00 | 64 | 1015.2 |
| 20260508103959 | 9 | 248 | 1.6 | 6.4 | 0.00 | 0.00 | 0.00 | 65 | 1015.3 |
| 20260508103500 | 9 | 239 | 1.6 | 6.4 | 0.00 | 0.00 | 0.00 | 65 | 1015.4 |
| 20260508103021 | 9 | 227 | 0.0 | 6.4 | 0.00 | 0.00 | 0.00 | 66 | 1015.3 |
| 20260508102521 | 9 | 220 | 1.6 | 6.4 | 0.00 | 0.00 | 0.00 | 67 | 1015.3 |
| 20260508102000 | 9 | 222 | 1.6 | 3.2 | 0.00 | 0.00 | 0.00 | 67 | 1015.2 |
| 20260508101459 | 9 | 232 | 0.0 | 3.2 | 0.00 | 0.00 | 0.00 | 67 | 1015.2 |
| 20260508101000 | 9 | 251 | 0.0 | 3.2 | 0.00 | 0.00 | 0.00 | 68 | 1015.3 |
| 20260508100500 | 9 | 253 | 1.6 | 4.8 | 0.00 | 0.00 | 0.00 | 66 | 1015.3 |
| 20260508095959 | 9 | 245 | 1.6 | 4.8 | 0.00 | 0.00 | 0.00 | 67 | 1015.3 |
| 20260508095500 | 8 | 249 | 0.0 | 3.2 | 0.00 | 0.00 | 0.00 | 68 | 1015.3 |
| 20260508095000 | 8 | 255 | 0.0 | 3.2 | 0.00 | 0.00 | 0.00 | 67 | 1015.3 |
| 20260508094500 | 8 | 250 | 0.0 | 3.2 | 0.00 | 0.00 | 0.00 | 68 | 1015.3 |
| 20260508094000 | 8 | 246 | 1.6 | 6.4 | 0.00 | 0.00 | 0.00 | 67 | 1015.3 |
| 20260508093500 | 8 | 243 | 1.6 | 6.4 | 0.00 | 0.00 | 0.00 | 68 | 1015.3 |
| 20260508092959 | 8 | 236 | 1.6 | 6.4 | 0.00 | 0.00 | 0.00 | 68 | 1015.3 |
| 20260508092459 | 8 | 235 | 1.6 | 6.4 | 0.00 | 0.00 | 0.00 | 68 | 1015.3 |
| 20260508091959 | 8 | 239 | 0.0 | 3.2 | 0.00 | 0.00 | 0.00 | 69 | 1015.2 |
| 20260508091459 | 8 | 238 | 0.0 | 3.2 | 0.00 | 0.00 | 0.00 | 69 | 1015.3 |
| 20260508091021 | 8 | 242 | 0.0 | 3.2 | 0.00 | 0.00 | 0.00 | 70 | 1015.3 |
| 20260508090521 | 8 | 247 | 1.6 | 4.8 | 0.00 | 0.00 | 0.00 | 70 | 1015.4 |
| 20260508085959 | 7 | 258 | 0.0 | 4.8 | 0.00 | 0.00 | 0.00 | 71 | 1015.4 |
| 20260508085500 | 7 | 277 | 0.0 | 3.2 | 0.00 | 0.00 | 0.00 | 72 | 1015.4 |
| 20260508085021 | 7 | 289 | 0.0 | 3.2 | 0.00 | 0.00 | 0.00 | 74 | 1015.4 |
| 20260508084500 | 7 | 290 | 0.0 | 3.2 | 0.00 | 0.00 | 0.00 | 74 | 1015.3 |
| 20260508083959 | 6 | 290 | 0.0 | 1.6 | 0.00 | 0.00 | 0.00 | 75 | 1015.2 |
| 20260508083500 | 6 | 290 | 0.0 | 1.6 | 0.00 | 0.00 | 0.00 | 76 | 1015.2 |
| 20260508083000 | 6 | 290 | 0.0 | 1.6 | 0.00 | 0.00 | 0.00 | 76 | 1015.3 |
| 20260508082500 | 6 | 290 | 0.0 | 1.6 | 0.00 | 0.00 | 0.00 | 75 | 1015.3 |
| 20260508081959 | 7 | 290 | 0.0 | 1.6 | 0.00 | 0.00 | 0.00 | 75 | 1015.2 |
| 20260508081459 | 7 | 290 | 0.0 | 1.6 | 0.00 | 0.00 | 0.00 | 75 | 1015.3 |
| 20260508080959 | 7 | 290 | 0.0 | 1.6 | 0.00 | 0.00 | 0.00 | 75 | 1015.2 |
| 20260508080459 | 7 | 290 | 0.0 | 3.2 | 0.00 | 0.00 | 0.00 | 74 | 1015.3 |
| 20260508080021 | 7 | 290 | 0.0 | 3.2 | 0.00 | 0.00 | 0.00 | 75 | 1015.3 |
| 20260508075521 | 7 | 290 | 0.0 | 1.6 | 0.00 | 0.00 | 0.00 | 75 | 1015.2 |
| 20260508074959 | 7 | 289 | 0.0 | 1.6 | 0.00 | 0.00 | 0.00 | 74 | 1015.3 |
| 20260508074501 | 7 | 280 | 0.0 | 3.2 | 0.00 | 0.00 | 0.00 | 74 | 1015.3 |
| 20260508074000 | 7 | 276 | 0.0 | 3.2 | 0.00 | 0.00 | 0.00 | 73 | 1015.3 |
| 20260508073521 | 7 | 277 | 0.0 | 1.6 | 0.00 | 0.00 | 0.00 | 73 | 1015.2 |
| 20260508072959 | 7 | 277 | 0.0 | 1.6 | 0.00 | 0.00 | 0.00 | 73 | 1015.2 |
| 20260508072500 | 7 | 277 | 0.0 | 1.6 | 0.00 | 0.00 | 0.00 | 71 | 1015.2 |
| 20260508072021 | 7 | 277 | 0.0 | 1.6 | 0.00 | 0.00 | 0.00 | 71 | 1015.2 |
| 20260508071500 | 7 | 277 | 0.0 | 1.6 | 0.00 | 0.00 | 0.00 | 72 | 1015.4 |
| 20260508071020 | 7 | 277 | 0.0 | 1.6 | 0.00 | 0.00 | 0.00 | 71 | 1015.4 |
| 20260508070500 | 7 | 277 | 0.0 | 1.6 | 0.00 | 0.00 | 0.00 | 71 | 1015.4 |
| 20260508070000 | 7 | 277 | 0.0 | 1.6 | 0.00 | 0.00 | 0.00 | 70 | 1015.5 |
| 20260508065521 | 7 | 277 | 0.0 | 1.6 | 0.00 | 0.00 | 0.00 | 70 | 1015.5 |
| 20260508065000 | 8 | 278 | 0.0 | 1.6 | 0.00 | 0.00 | 0.00 | 70 | 1015.5 |
| 20260508064500 | 8 | 278 | 0.0 | 3.2 | 0.00 | 0.00 | 0.00 | 68 | 1015.5 |
| 20260508064000 | 8 | 278 | 0.0 | 3.2 | 0.00 | 0.00 | 0.00 | 68 | 1015.6 |
| 20260508063500 | 8 | 278 | 0.0 | 1.6 | 0.00 | 0.00 | 0.00 | 68 | 1015.7 |
| 20260508063000 | 8 | 278 | 0.0 | 1.6 | 0.00 | 0.00 | 0.00 | 68 | 1015.8 |
| 20260508062500 | 8 | 278 | 0.0 | 1.6 | 0.00 | 0.00 | 0.00 | 67 | 1015.8 |
| 20260508062021 | 8 | 284 | 0.0 | 3.2 | 0.00 | 0.00 | 0.00 | 68 | 1015.9 |
| 20260508061500 | 8 | 288 | 0.0 | 3.2 | 0.00 | 0.00 | 0.00 | 66 | 1016.0 |
| 20260508060959 | 8 | 290 | 0.0 | 3.2 | 0.00 | 0.00 | 0.00 | 67 | 1016.0 |
| 20260508060500 | 8 | 290 | 0.0 | 1.6 | 0.00 | 0.00 | 0.00 | 67 | 1016.0 |
| 20260508060000 | 8 | 290 | 0.0 | 1.6 | 0.00 | 0.00 | 0.00 | 67 | 1016.0 |
| 20260508055500 | 8 | 290 | 0.0 | 3.2 | 0.00 | 0.00 | 0.00 | 66 | 1016.0 |
| 20260508055000 | 8 | 290 | 0.0 | 3.2 | 0.00 | 0.00 | 0.00 | 66 | 1016.0 |
| 20260508054521 | 8 | 290 | 0.0 | 3.2 | 0.00 | 0.00 | 0.00 | 65 | 1015.9 |
| 20260508053959 | 8 | 291 | 0.0 | 1.6 | 0.00 | 0.00 | 0.00 | 64 | 1015.9 |
| 20260508053500 | 8 | 286 | 0.0 | 4.8 | 0.00 | 0.00 | 0.00 | 64 | 1015.9 |
| 20260508053000 | 8 | 249 | 0.0 | 4.8 | 0.00 | 0.00 | 0.00 | 65 | 1016.0 |
| 20260508052500 | 8 | 229 | 0.0 | 4.8 | 0.00 | 0.00 | 0.00 | 64 | 1016.0 |
| 20260508052000 | 8 | 221 | 0.0 | 3.2 | 0.00 | 0.00 | 0.00 | 65 | 1016.0 |
| 20260508051521 | 8 | 221 | 0.0 | 1.6 | 0.00 | 0.00 | 0.00 | 67 | 1016.0 |
| 20260508051000 | 8 | 204 | 0.0 | 3.2 | 0.00 | 0.00 | 0.00 | 66 | 1015.9 |
| 20260508050500 | 8 | 199 | 0.0 | 3.2 | 0.00 | 0.00 | 0.00 | 66 | 1015.9 |
| 20260508050000 | 9 | 194 | 0.0 | 1.6 | 0.00 | 0.00 | 0.00 | 66 | 1015.9 |
| 20260508045500 | 9 | 194 | 0.0 | 3.2 | 0.00 | 0.00 | 0.00 | 65 | 1015.8 |
| 20260508045000 | 9 | 194 | 0.0 | 3.2 | 0.00 | 0.00 | 0.00 | 64 | 1015.7 |
| 20260508044500 | 10 | 193 | 0.0 | 1.6 | 0.00 | 0.00 | 0.00 | 62 | 1015.8 |
| 20260508044000 | 10 | 189 | 0.0 | 1.6 | 0.00 | 0.00 | 0.00 | 59 | 1015.9 |
| 20260508043500 | 10 | 152 | 0.0 | 3.2 | 0.00 | 0.00 | 0.00 | 60 | 1015.9 |
| 20260508043000 | 10 | 160 | 0.0 | 3.2 | 0.00 | 0.00 | 0.00 | 57 | 1015.9 |
| 20260508042500 | 10 | 192 | 0.0 | 3.2 | 0.00 | 0.00 | 0.00 | 57 | 1015.8 |
| 20260508042000 | 10 | 205 | 0.0 | 3.2 | 0.00 | 0.00 | 0.00 | 56 | 1015.9 |
| 20260508041500 | 10 | 249 | 0.0 | 3.2 | 0.00 | 0.00 | 0.00 | 57 | 1015.8 |
| 20260508041000 | 10 | 262 | 1.6 | 6.4 | 0.00 | 0.00 | 0.00 | 57 | 1015.8 |
| 20260508040500 | 10 | 238 | 1.6 | 6.4 | 0.00 | 0.00 | 0.00 | 58 | 1015.8 |
| 20260508040021 | 10 | 158 | 0.0 | 3.2 | 0.00 | 0.00 | 0.00 | 60 | 1015.7 |
| 20260508035500 | 10 | 141 | 0.0 | 3.2 | 0.00 | 0.00 | 0.00 | 60 | 1015.6 |
| 20260508035000 | 9 | 152 | 0.0 | 4.8 | 0.00 | 0.00 | 0.00 | 62 | 1015.6 |
| 20260508034500 | 9 | 175 | 0.0 | 4.8 | 0.00 | 0.00 | 0.00 | 63 | 1015.6 |